Regional Weather Roundup
Issued by NWS Goodland, KS

Home | Current Version | Previous Version | Graphics & Text | Print | Product List | Glossary On
Versions: 1 2 3 4 5 6 7 8 9 10 11 12 13 14 15 16 17 18 19 20 21 22 23 24 25 26 27 28 29 30 31 32 33 34 35 36 37 38 39 40 41 42 43 44 45 46 47 48 49 50
000
ASUS43 KGLD 291859
RWRGLD

GOODLAND FORECAST AREA HOURLY WEATHER ROUNDUP
NATIONAL WEATHER SERVICE GOODLAND KS
100 PM MDT SAT AUG 29 2015

...OFFICIAL OBSERVATIONS...

CITY           SKY/WX    TMP DP  RH WIND       PRES   REMARKS
GOODLAND KS    SUNNY     89  45  21 SW8       30.17F
HILL CITY KS   SUNNY     89  56  32 NE6       30.10F
IMPERIAL NEB   SUNNY     90  51  26 S7        30.13F
MCCOOK NEB     SUNNY     90  45  21 VRB3      30.11F
AKRON CO       SUNNY     87  37  17 S10G18    30.20F
BURLINGTON CO  SUNNY     85  46  25 SW9       30.21F
LIMON CO       SUNNY     81  43  26 S12G20    30.27F
$$

...UNOFFICIAL OBSERVATIONS...

CITY           SKY/WX    TMP DP  RH WIND       PRES   REMARKS
COLBY KS       SUNNY     90  46  22 CALM      30.15F
GOVE KS          N/A     88  32  13 MISG        N/A
LENORA KS        N/A     85  32  15 MISG        N/A
NORTON KS      SUNNY     84  54  34 N3        30.10S
SHARON SPRINGS   N/A     89  53  28 SW6         N/A
TRENTON NEB      N/A     87  32  14 CALM        N/A
YUMA CO          N/A     87  49  26 CALM        N/A
$$



USA.gov is the U.S. government's official web portal to all federal, state and local government web resources and services.